Time,TemperatureF,DewpointF,PressureIn,WindDirection,WindDirectionDegrees,WindSpeedMPH,WindSpeedGustMPH,Humidity,HourlyPrecipIn,Conditions,Clouds,dailyrainin,SoftwareType,DateUTC
2013-06-07 00:08:00,76.0,74.0,29.88,South,188,1.0,8.0,92,0.00,,,0.92,weatherlink.com 1.10,2013-06-07 04:08:00,
2013-06-07 00:23:00,75.9,74.0,29.87,SSE,162,0.0,4.0,92,0.00,,,0.92,weatherlink.com 1.10,2013-06-07 04:23:00,
2013-06-07 00:38:00,75.8,74.0,29.87,South,169,4.0,6.0,93,0.00,,,0.92,weatherlink.com 1.10,2013-06-07 04:38:00,
2013-06-07 00:53:00,75.5,73.0,29.88,South,169,4.0,5.0,93,0.00,,,0.92,weatherlink.com 1.10,2013-06-07 04:53:00,
2013-06-07 01:08:00,75.2,73.0,29.88,SSE,157,2.0,7.0,93,0.00,,,0.92,weatherlink.com 1.10,2013-06-07 05:08:00,
2013-06-07 01:23:00,75.1,73.0,29.88,SSE,163,3.0,6.0,93,0.00,,,0.92,weatherlink.com 1.10,2013-06-07 05:23:00,
2013-06-07 01:38:00,74.9,73.0,29.89,SE,145,4.0,8.0,94,0.00,,,0.92,weatherlink.com 1.10,2013-06-07 05:38:00,
2013-06-07 01:53:00,74.9,73.0,29.89,SSE,154,3.0,5.0,94,0.00,,,0.92,weatherlink.com 1.10,2013-06-07 05:53:00,
2013-06-07 02:08:00,74.7,73.0,29.89,SSE,159,2.0,6.0,94,0.00,,,0.92,weatherlink.com 1.10,2013-06-07 06:08:00,
2013-06-07 02:23:00,74.6,73.0,29.89,SE,144,4.0,7.0,94,0.00,,,0.92,weatherlink.com 1.10,2013-06-07 06:23:00,
2013-06-07 02:38:00,74.5,73.0,29.89,SSE,151,6.0,7.0,95,0.00,,,0.92,weatherlink.com 1.10,2013-06-07 06:38:00,
2013-06-07 02:53:00,74.4,73.0,29.88,SE,146,3.0,5.0,95,0.00,,,0.92,weatherlink.com 1.10,2013-06-07 06:53:00,
2013-06-07 03:08:00,74.4,73.0,29.88,SSE,154,4.0,4.0,95,0.00,,,0.92,weatherlink.com 1.10,2013-06-07 07:08:00,
2013-06-07 03:23:00,74.2,73.0,29.88,SSE,156,1.0,4.0,95,0.00,,,0.92,weatherlink.com 1.10,2013-06-07 07:23:00,
2013-06-07 03:38:00,74.1,73.0,29.88,SSE,156,4.0,5.0,95,0.00,,,0.92,weatherlink.com 1.10,2013-06-07 07:38:00,
2013-06-07 03:53:00,74.0,73.0,29.88,SSE,153,1.0,4.0,95,0.00,,,0.92,weatherlink.com 1.10,2013-06-07 07:53:00,
2013-06-07 04:08:00,74.1,73.0,29.87,SSE,154,0.0,4.0,95,0.00,,,0.92,weatherlink.com 1.10,2013-06-07 08:08:00,
2013-06-07 04:23:00,74.0,73.0,29.88,SSE,154,0.0,3.0,96,0.00,,,0.92,weatherlink.com 1.10,2013-06-07 08:23:00,
2013-06-07 04:38:00,73.9,73.0,29.88,SSE,154,2.0,4.0,96,0.00,,,0.92,weatherlink.com 1.10,2013-06-07 08:38:00,
2013-06-07 04:53:00,74.0,73.0,29.89,SSE,154,0.0,3.0,96,0.00,,,0.92,weatherlink.com 1.10,2013-06-07 08:53:00,
2013-06-07 05:08:00,74.0,73.0,29.89,SSE,154,2.0,5.0,96,0.00,,,0.92,weatherlink.com 1.10,2013-06-07 09:08:00,
2013-06-07 05:23:00,74.2,73.0,29.89,SE,136,1.0,6.0,96,0.00,,,0.92,weatherlink.com 1.10,2013-06-07 09:23:00,
2013-06-07 05:38:00,74.4,73.0,29.89,SSE,153,4.0,5.0,95,0.00,,,0.92,weatherlink.com 1.10,2013-06-07 09:38:00,
2013-06-07 05:53:00,74.6,73.0,29.90,SSE,147,4.0,6.0,95,0.00,,,0.92,weatherlink.com 1.10,2013-06-07 09:53:00,
2013-06-07 06:08:00,74.9,73.0,29.91,SSE,166,4.0,7.0,94,0.00,,,0.92,weatherlink.com 1.10,2013-06-07 10:08:00,
2013-06-07 06:23:00,75.2,73.0,29.91,SSE,148,7.0,8.0,94,0.00,,,0.92,weatherlink.com 1.10,2013-06-07 10:23:00,
2013-06-07 06:38:00,75.5,73.0,29.92,South,181,2.0,7.0,93,0.00,,,0.92,weatherlink.com 1.10,2013-06-07 10:38:00,
2013-06-07 06:53:00,75.7,74.0,29.93,SSE,157,1.0,8.0,93,0.00,,,0.92,weatherlink.com 1.10,2013-06-07 10:53:00,
2013-06-07 07:08:00,76.1,74.0,29.92,South,169,5.0,10.0,93,0.00,,,0.92,weatherlink.com 1.10,2013-06-07 11:08:00,
2013-06-07 07:23:00,76.5,74.0,29.91,SE,134,6.0,13.0,92,0.00,,,0.92,weatherlink.com 1.10,2013-06-07 11:23:00,
2013-06-07 07:38:00,76.6,74.0,29.92,SSE,159,9.0,9.0,92,0.00,,,0.92,weatherlink.com 1.10,2013-06-07 11:38:00,
2013-06-07 07:53:00,77.6,75.0,29.93,SSE,167,2.0,10.0,92,0.00,,,0.92,weatherlink.com 1.10,2013-06-07 11:53:00,
2013-06-07 08:08:00,77.8,75.0,29.93,SSW,198,3.0,11.0,90,0.00,,,0.92,weatherlink.com 1.10,2013-06-07 12:08:00,
2013-06-07 08:24:00,77.6,75.0,29.94,South,169,3.0,7.0,91,0.00,,,0.92,weatherlink.com 1.10,2013-06-07 12:24:00,
2013-06-07 08:39:00,77.6,75.0,29.94,South,172,2.0,7.0,92,0.00,,,0.92,weatherlink.com 1.10,2013-06-07 12:39:00,
2013-06-07 08:54:00,77.8,76.0,29.95,South,188,3.0,7.0,93,0.00,,,0.92,weatherlink.com 1.10,2013-06-07 12:54:00,
2013-06-07 09:09:00,78.5,76.0,29.95,South,186,4.0,7.0,92,0.00,,,0.92,weatherlink.com 1.10,2013-06-07 13:09:00,
2013-06-07 09:24:00,79.9,77.0,29.95,SW,222,8.0,12.0,89,0.00,,,0.00,weatherlink.com 1.10,2013-06-07 13:24:00,
2013-06-07 09:39:00,81.0,77.0,29.96,South,178,6.0,12.0,87,0.00,,,0.00,weatherlink.com 1.10,2013-06-07 13:39:00,
2013-06-07 09:54:00,81.5,77.0,29.97,South,188,10.0,13.0,86,0.00,,,0.00,weatherlink.com 1.10,2013-06-07 13:54:00,
2013-06-07 10:09:00,82.2,77.0,29.97,SW,223,2.0,10.0,84,0.00,,,0.00,weatherlink.com 1.10,2013-06-07 14:09:00,
2013-06-07 10:24:00,82.8,77.0,29.98,SSW,205,6.0,10.0,83,0.00,,,0.00,weatherlink.com 1.10,2013-06-07 14:24:00,
2013-06-07 10:39:00,83.2,76.0,29.97,SW,219,8.0,9.0,80,0.00,,,0.00,weatherlink.com 1.10,2013-06-07 14:39:00,
2013-06-07 10:54:00,83.9,77.0,29.97,SW,232,7.0,9.0,79,0.00,,,0.00,weatherlink.com 1.10,2013-06-07 14:54:00,
2013-06-07 11:09:00,84.4,77.0,29.97,SW,231,5.0,8.0,78,0.00,,,0.00,weatherlink.com 1.10,2013-06-07 15:09:00,
2013-06-07 11:24:00,85.0,77.0,29.97,SW,228,6.0,9.0,76,0.00,,,0.00,weatherlink.com 1.10,2013-06-07 15:24:00,
2013-06-07 11:39:00,85.5,77.0,29.97,SW,236,4.0,13.0,76,0.00,,,0.00,weatherlink.com 1.10,2013-06-07 15:39:00,
2013-06-07 11:54:00,85.9,77.0,29.97,SW,229,5.0,12.0,75,0.00,,,0.00,weatherlink.com 1.10,2013-06-07 15:54:00,
2013-06-07 12:09:00,86.3,77.0,29.96,WSW,247,3.0,13.0,74,0.00,,,0.00,weatherlink.com 1.10,2013-06-07 16:09:00,
2013-06-07 12:24:00,86.8,77.0,29.97,SW,224,5.0,11.0,73,0.00,,,0.00,weatherlink.com 1.10,2013-06-07 16:24:00,
2013-06-07 12:39:00,87.4,78.0,29.97,South,178,6.0,11.0,73,0.00,,,0.00,weatherlink.com 1.10,2013-06-07 16:39:00,
2013-06-07 12:54:00,87.5,77.0,29.96,SSW,192,7.0,10.0,71,0.00,,,0.00,weatherlink.com 1.10,2013-06-07 16:54:00,
2013-06-07 13:09:00,86.0,77.0,29.96,SE,146,5.0,11.0,75,0.00,,,0.00,weatherlink.com 1.10,2013-06-07 17:09:00,
2013-06-07 13:24:00,85.8,77.0,29.95,SW,216,3.0,12.0,76,0.00,,,0.00,weatherlink.com 1.10,2013-06-07 17:24:00,
2013-06-07 13:39:00,84.4,77.0,29.97,South,189,3.0,12.0,79,0.00,,,0.00,weatherlink.com 1.10,2013-06-07 17:39:00,
2013-06-07 14:24:00,81.2,76.0,29.97,SE,142,4.0,10.0,83,0.00,,,0.00,weatherlink.com 1.10,2013-06-07 18:24:00,
2013-06-07 14:54:00,80.3,75.0,29.97,East,88,3.0,14.0,84,0.00,,,0.00,weatherlink.com 1.10,2013-06-07 18:54:00,
2013-06-07 15:24:00,78.5,75.0,29.97,ESE,110,0.0,8.0,90,0.01,,,0.01,weatherlink.com 1.10,2013-06-07 19:24:00,
2013-06-07 16:25:00,75.8,74.0,29.98,SSE,158,14.0,18.0,95,0.13,,,0.14,weatherlink.com 1.10,2013-06-07 20:25:00,
2013-06-07 16:40:00,75.2,74.0,29.98,SE,143,8.0,11.0,96,0.27,,,0.29,weatherlink.com 1.10,2013-06-07 20:40:00,
2013-06-07 16:55:00,74.9,74.0,29.96,SSE,156,2.0,8.0,96,0.30,,,0.32,weatherlink.com 1.10,2013-06-07 20:55:00,
2013-06-07 17:10:00,74.7,74.0,29.98,South,169,2.0,3.0,97,0.27,,,0.32,weatherlink.com 1.10,2013-06-07 21:10:00,
2013-06-07 17:25:00,74.7,74.0,29.99,SW,233,5.0,7.0,97,0.17,,,0.32,weatherlink.com 1.10,2013-06-07 21:25:00,
2013-06-07 18:10:00,74.3,73.0,30.00,WSW,243,0.0,1.0,97,0.06,,,0.38,weatherlink.com 1.10,2013-06-07 22:10:00,
2013-06-07 18:25:00,73.9,73.0,29.99,SSE,157,5.0,8.0,97,0.17,,,0.49,weatherlink.com 1.10,2013-06-07 22:25:00,
2013-06-07 18:40:00,74.1,74.0,29.99,South,171,2.0,8.0,98,0.18,,,0.52,weatherlink.com 1.10,2013-06-07 22:40:00,
2013-06-07 18:55:00,74.2,74.0,30.00,SSE,165,4.0,8.0,98,0.17,,,0.54,weatherlink.com 1.10,2013-06-07 22:55:00,
2013-06-07 19:10:00,74.3,74.0,30.01,South,190,0.0,6.0,98,0.17,,,0.55,weatherlink.com 1.10,2013-06-07 23:10:00,
2013-06-07 19:25:00,73.8,73.0,30.01,South,186,2.0,9.0,97,0.09,,,0.58,weatherlink.com 1.10,2013-06-07 23:25:00,
2013-06-07 19:40:00,73.2,73.0,30.01,SW,220,0.0,6.0,98,0.09,,,0.61,weatherlink.com 1.10,2013-06-07 23:40:00,
2013-06-07 19:55:00,72.9,72.0,30.02,SW,220,2.0,4.0,98,0.09,,,0.63,weatherlink.com 1.10,2013-06-07 23:55:00,
2013-06-07 20:25:00,72.9,72.0,30.00,SSE,163,3.0,5.0,98,0.07,,,0.65,weatherlink.com 1.10,2013-06-08 00:25:00,
2013-06-07 20:40:00,73.2,73.0,29.99,SE,129,4.0,7.0,98,0.05,,,0.66,weatherlink.com 1.10,2013-06-08 00:40:00,
2013-06-07 20:55:00,73.5,73.0,29.99,ESE,122,0.0,3.0,98,0.05,,,0.68,weatherlink.com 1.10,2013-06-08 00:55:00,
2013-06-07 21:10:00,73.8,73.0,29.98,ESE,122,0.0,1.0,98,0.04,,,0.68,weatherlink.com 1.10,2013-06-08 01:10:00,
2013-06-07 21:25:00,73.7,73.0,29.99,ESE,122,0.0,1.0,98,0.03,,,0.68,weatherlink.com 1.10,2013-06-08 01:25:00,
2013-06-07 21:40:00,73.4,73.0,29.99,ESE,122,0.0,2.0,98,0.02,,,0.68,weatherlink.com 1.10,2013-06-08 01:40:00,
2013-06-07 21:55:00,73.5,73.0,29.99,ESE,103,3.0,5.0,98,0.00,,,0.68,weatherlink.com 1.10,2013-06-08 01:55:00,
2013-06-07 22:10:00,73.7,73.0,30.00,East,98,0.0,2.0,98,0.00,,,0.68,weatherlink.com 1.10,2013-06-08 02:10:00,
2013-06-07 22:25:00,73.6,73.0,30.01,East,98,0.0,1.0,98,0.00,,,0.68,weatherlink.com 1.10,2013-06-08 02:25:00,
2013-06-07 23:25:00,73.5,73.0,30.02,East,98,0.0,3.0,98,0.00,,,0.68,weatherlink.com 1.10,2013-06-08 03:25:00,
2013-06-07 23:40:00,73.7,73.0,30.01,East,98,0.0,2.0,98,0.00,,,0.68,weatherlink.com 1.10,2013-06-08 03:40:00,
2013-06-07 23:55:00,73.7,73.0,30.01,East,98,2.0,3.0,98,0.00,,,0.68,weatherlink.com 1.10,2013-06-08 03:55:00,